TC427 LTFM-LTBQ

Flight info

Callsign TC427
Flight time 0h 43m
Altitude 19000
Route IST G8 YAA
Aircraft B350/L-SBGRW/S

Departure

Time 2026-05-06 15:51
Airport İstanbul Airport (LTFM)

Arrival

Time 2026-05-06 16:34
Airport Cengiz Topel Airport (LTBQ)
Time Latitude Longitude Altitude Speed Heading
2026-05-06 15:16 41.27499 28.75139 295 ft 0 kts 360°
2026-05-06 15:42 41.27494 28.75139 296 ft 2 kts 360°
2026-05-06 15:42 41.27478 28.75139 300 ft 2 kts 359°
2026-05-06 15:42 41.27462 28.75139 299 ft 2 kts 360°
2026-05-06 15:43 41.27446 28.75139 297 ft 2 kts
2026-05-06 15:43 41.27429 28.75139 300 ft 2 kts
2026-05-06 15:43 41.27416 28.75135 300 ft 2 kts 31°
2026-05-06 15:43 41.27414 28.75132 300 ft 0 kts 65°
2026-05-06 15:47 41.27416 28.75154 299 ft 7 kts 88°
2026-05-06 15:47 41.27420 28.75261 295 ft 16 kts 87°
2026-05-06 15:47 41.27381 28.75363 295 ft 16 kts 167°
2026-05-06 15:48 41.27247 28.75372 299 ft 22 kts 180°
2026-05-06 15:48 41.27073 28.75370 301 ft 27 kts 177°
2026-05-06 15:48 41.26869 28.75372 306 ft 31 kts 180°
2026-05-06 15:48 41.26647 28.75375 307 ft 34 kts 180°
2026-05-06 15:49 41.26413 28.75397 309 ft 16 kts 147°
2026-05-06 15:49 41.26419 28.75461 309 ft 11 kts 74°
2026-05-06 15:49 41.26420 28.75478 309 ft 0 kts 92°
2026-05-06 15:50 41.26420 28.75493 309 ft 6 kts 94°
2026-05-06 15:50 41.26419 28.75588 309 ft 14 kts 89°
2026-05-06 15:51 41.26462 28.75674 308 ft 10 kts 343°
2026-05-06 15:51 41.26690 28.75669 307 ft 77 kts 358°
2026-05-06 15:51 41.27470 28.75584 460 ft 133 kts 353°
2026-05-06 15:51 41.28429 28.75415 1005 ft 149 kts 12°
2026-05-06 15:52 41.29442 28.75999 1438 ft 170 kts 27°
2026-05-06 15:52 41.30554 28.76728 1850 ft 185 kts 27°
2026-05-06 15:52 41.31742 28.77520 2260 ft 195 kts 27°
2026-05-06 15:52 41.32564 28.78077 2522 ft 199 kts 26°
2026-05-06 15:53 41.33808 28.78945 2916 ft 203 kts 29°
2026-05-06 15:53 41.34677 28.80398 3321 ft 211 kts 74°
2026-05-06 15:53 41.34489 28.82336 3740 ft 221 kts 120°
2026-05-06 15:53 41.33321 28.83627 4149 ft 225 kts 164°
2026-05-06 15:54 41.31799 28.83549 4567 ft 222 kts 207°
2026-05-06 15:54 41.30395 28.82556 4962 ft 224 kts 214°
2026-05-06 15:54 41.29065 28.81595 5340 ft 228 kts 208°
2026-05-06 15:54 41.27558 28.80761 5764 ft 231 kts 206°
2026-05-06 15:55 41.26271 28.80101 6120 ft 233 kts 205°
2026-05-06 15:55 41.24774 28.79271 6523 ft 233 kts 210°
2026-05-06 15:55 41.23309 28.78328 6903 ft 234 kts 210°
2026-05-06 15:55 41.21785 28.77552 7309 ft 237 kts 197°
2026-05-06 15:56 41.20151 28.77222 7755 ft 238 kts 187°
2026-05-06 15:56 41.18490 28.77147 8215 ft 239 kts 182°
2026-05-06 15:56 41.16821 28.77188 8650 ft 242 kts 178°
2026-05-06 15:56 41.15132 28.77503 9097 ft 244 kts 171°
2026-05-06 15:57 41.13448 28.77859 9540 ft 244 kts 174°
2026-05-06 15:57 41.11754 28.78147 9982 ft 246 kts 173°
2026-05-06 15:57 41.10062 28.78470 10393 ft 246 kts 172°
2026-05-06 15:57 41.08362 28.78793 10798 ft 247 kts 173°
2026-05-06 15:58 41.06655 28.79107 11209 ft 247 kts 173°
2026-05-06 15:58 41.04953 28.79426 11633 ft 247 kts 172°
2026-05-06 15:58 41.03247 28.79747 12057 ft 247 kts 172°
2026-05-06 15:58 41.01589 28.80054 12482 ft 247 kts 172°
2026-05-06 15:59 41.00111 28.80330 12861 ft 248 kts 172°
2026-05-06 15:59 40.98537 28.80638 13269 ft 248 kts 169°
2026-05-06 15:59 40.96845 28.81237 13755 ft 247 kts 160°
2026-05-06 15:59 40.95257 28.82083 14193 ft 246 kts 155°
2026-05-06 16:00 40.93712 28.83052 14625 ft 246 kts 150°
2026-05-06 16:00 40.92270 28.84246 15064 ft 244 kts 144°
2026-05-06 16:00 40.90835 28.85463 15488 ft 246 kts 147°
2026-05-06 16:00 40.89369 28.86636 15914 ft 247 kts 147°
2026-05-06 16:01 40.87908 28.87841 16340 ft 248 kts 146°
2026-05-06 16:01 40.86441 28.89049 16777 ft 249 kts 147°
2026-05-06 16:01 40.84965 28.90254 17220 ft 250 kts 147°
2026-05-06 16:01 40.83485 28.91467 17660 ft 250 kts 147°
2026-05-06 16:02 40.81979 28.92701 18117 ft 252 kts 147°
2026-05-06 16:02 40.80487 28.93922 18520 ft 253 kts 147°
2026-05-06 16:02 40.78966 28.95165 18763 ft 262 kts 147°
2026-05-06 16:02 40.77385 28.96456 18886 ft 273 kts 147°
2026-05-06 16:03 40.75737 28.97803 18936 ft 284 kts 147°
2026-05-06 16:03 40.74035 28.99194 18961 ft 292 kts 147°
2026-05-06 16:03 40.72285 29.00621 18970 ft 298 kts 147°
2026-05-06 16:03 40.70509 29.02071 18981 ft 303 kts 147°
2026-05-06 16:04 40.68730 29.03521 18982 ft 306 kts 147°
2026-05-06 16:04 40.66891 29.05019 18980 ft 308 kts 147°
2026-05-06 16:04 40.65062 29.06509 18981 ft 309 kts 147°
2026-05-06 16:04 40.63230 29.07999 18986 ft 310 kts 147°
2026-05-06 16:05 40.61387 29.09498 18987 ft 311 kts 148°
2026-05-06 16:05 40.59547 29.10994 18979 ft 312 kts 148°
2026-05-06 16:05 40.57667 29.12520 18978 ft 312 kts 148°
2026-05-06 16:05 40.55820 29.14019 18978 ft 313 kts 148°
2026-05-06 16:06 40.53969 29.15521 18974 ft 312 kts 148°
2026-05-06 16:06 40.52119 29.17019 18975 ft 312 kts 148°
2026-05-06 16:06 40.50317 29.18606 18970 ft 311 kts 139°
2026-05-06 16:06 40.49326 29.19860 18977 ft 310 kts 129°
2026-05-06 16:07 40.48112 29.22169 18978 ft 306 kts 114°
2026-05-06 16:07 40.47374 29.24755 18974 ft 301 kts 99°
2026-05-06 16:07 40.47154 29.27453 18970 ft 295 kts 84°
2026-05-06 16:07 40.47457 29.30084 18981 ft 288 kts 69°
2026-05-06 16:08 40.48238 29.32476 18975 ft 283 kts 57°
2026-05-06 16:08 40.49199 29.34736 18975 ft 283 kts 56°
2026-05-06 16:08 40.50161 29.36990 18977 ft 283 kts 57°
2026-05-06 16:08 40.51083 29.39272 18983 ft 283 kts 59°
2026-05-06 16:09 40.51964 29.41594 18978 ft 284 kts 60°
2026-05-06 16:09 40.52814 29.43922 18973 ft 284 kts 61°
2026-05-06 16:09 40.53651 29.46286 18979 ft 284 kts 61°
2026-05-06 16:09 40.54462 29.48652 18978 ft 284 kts 63°
2026-05-06 16:10 40.55100 29.51131 18977 ft 287 kts 70°
2026-05-06 16:10 40.55688 29.53633 18979 ft 286 kts 67°
2026-05-06 16:10 40.56326 29.56111 18966 ft 287 kts 68°
2026-05-06 16:10 40.56933 29.58623 18902 ft 289 kts 68°
2026-05-06 16:11 40.57563 29.61143 18835 ft 291 kts 68°
2026-05-06 16:11 40.58187 29.63682 18770 ft 292 kts 69°
2026-05-06 16:11 40.58795 29.66236 18701 ft 293 kts 73°
2026-05-06 16:11 40.59016 29.68920 18637 ft 299 kts 88°
2026-05-06 16:12 40.58700 29.71639 18538 ft 304 kts 103°
2026-05-06 16:12 40.57863 29.74207 18445 ft 308 kts 120°
2026-05-06 16:12 40.56363 29.76233 18352 ft 312 kts 140°
2026-05-06 16:12 40.54648 29.77975 18244 ft 312 kts 141°
2026-05-06 16:13 40.52920 29.79707 18138 ft 312 kts 141°
2026-05-06 16:13 40.51162 29.81485 17999 ft 312 kts 141°
2026-05-06 16:13 40.49587 29.83351 17866 ft 311 kts 133°
2026-05-06 16:13 40.48060 29.85370 17740 ft 311 kts 136°
2026-05-06 16:14 40.46475 29.87301 17599 ft 311 kts 134°
2026-05-06 16:14 40.44927 29.89285 17459 ft 310 kts 135°
2026-05-06 16:14 40.43359 29.91231 17327 ft 310 kts 135°
2026-05-06 16:14 40.42028 29.93426 17207 ft 307 kts 120°
2026-05-06 16:15 40.41160 29.95995 17009 ft 304 kts 101°
2026-05-06 16:15 40.40845 29.98744 16763 ft 305 kts 92°
2026-05-06 16:15 40.40750 30.01520 16527 ft 304 kts 89°
2026-05-06 16:15 40.40749 30.04296 16301 ft 304 kts 84°
2026-05-06 16:16 40.41010 30.07033 16080 ft 302 kts 79°
2026-05-06 16:16 40.41225 30.09782 15862 ft 303 kts 83°
2026-05-06 16:16 40.41443 30.12526 15628 ft 302 kts 81°
2026-05-06 16:16 40.41665 30.15269 15413 ft 302 kts 82°
2026-05-06 16:17 40.41912 30.18004 15191 ft 300 kts 74°
2026-05-06 16:17 40.42462 30.19637 15052 ft 295 kts 52°
2026-05-06 16:17 40.44639 30.21542 14711 ft 288 kts 10°
2026-05-06 16:17 40.45985 30.21557 14539 ft 287 kts 348°
2026-05-06 16:18 40.47733 30.20370 14281 ft 288 kts 318°
2026-05-06 16:18 40.49099 30.18453 14059 ft 287 kts 314°
2026-05-06 16:18 40.50440 30.16520 13840 ft 285 kts 316°
2026-05-06 16:18 40.52005 30.14956 13612 ft 283 kts 330°
2026-05-06 16:19 40.53776 30.13768 13364 ft 282 kts 336°
2026-05-06 16:19 40.55596 30.12814 13100 ft 281 kts 340°
2026-05-06 16:19 40.57444 30.11953 12848 ft 281 kts 341°
2026-05-06 16:19 40.59288 30.11245 12596 ft 274 kts 349°
2026-05-06 16:20 40.61095 30.10686 12325 ft 261 kts 335°
2026-05-06 16:20 40.62563 30.09343 11937 ft 255 kts 326°
2026-05-06 16:20 40.64132 30.08281 11482 ft 254 kts 339°
2026-05-06 16:20 40.65834 30.07647 10995 ft 255 kts 347°
2026-05-06 16:21 40.67574 30.07235 10507 ft 254 kts 352°
2026-05-06 16:21 40.69344 30.07167 10029 ft 255 kts
2026-05-06 16:21 40.71111 30.07265 9500 ft 254 kts
2026-05-06 16:21 40.72767 30.07992 8978 ft 257 kts 36°
2026-05-06 16:22 40.73732 30.09954 8469 ft 263 kts 75°
2026-05-06 16:22 40.73591 30.12341 7959 ft 266 kts 113°
2026-05-06 16:22 40.72374 30.14156 7450 ft 265 kts 152°
2026-05-06 16:22 40.70616 30.14631 6955 ft 259 kts 190°
2026-05-06 16:23 40.69048 30.13618 6474 ft 252 kts 228°
2026-05-06 16:23 40.68322 30.11591 5970 ft 247 kts 266°
2026-05-06 16:23 40.68755 30.09420 5448 ft 246 kts 305°
2026-05-06 16:23 40.70132 30.08137 4976 ft 249 kts 344°
2026-05-06 16:24 40.71829 30.08365 4707 ft 246 kts 25°
2026-05-06 16:24 40.72970 30.09945 4590 ft 240 kts 66°
2026-05-06 16:24 40.73069 30.12059 4538 ft 232 kts 107°
2026-05-06 16:24 40.72488 30.14003 4527 ft 226 kts 99°
2026-05-06 16:25 40.72445 30.16045 4501 ft 221 kts 88°
2026-05-06 16:25 40.72460 30.18056 4503 ft 218 kts 89°
2026-05-06 16:25 40.72465 30.20047 4498 ft 216 kts 89°
2026-05-06 16:25 40.72418 30.22018 4497 ft 215 kts 95°
2026-05-06 16:26 40.72205 30.23967 4501 ft 214 kts 98°
2026-05-06 16:26 40.72013 30.25914 4501 ft 214 kts 96°
2026-05-06 16:26 40.71849 30.27858 4504 ft 213 kts 96°
2026-05-06 16:26 40.71665 30.29798 4504 ft 213 kts 97°
2026-05-06 16:27 40.71481 30.31739 4502 ft 213 kts 97°
2026-05-06 16:27 40.71303 30.33678 4504 ft 213 kts 97°
2026-05-06 16:27 40.71091 30.35610 4503 ft 213 kts 106°
2026-05-06 16:27 40.70216 30.37100 4501 ft 209 kts 153°
2026-05-06 16:28 40.68816 30.37319 4499 ft 203 kts 199°
2026-05-06 16:28 40.67778 30.36166 4500 ft 199 kts 245°
2026-05-06 16:28 40.67703 30.34366 4237 ft 210 kts 289°
2026-05-06 16:28 40.68370 30.32559 3718 ft 226 kts 297°
2026-05-06 16:29 40.69103 30.30699 3334 ft 230 kts 296°
2026-05-06 16:29 40.69802 30.28828 3159 ft 223 kts 295°
2026-05-06 16:29 40.70424 30.27009 3080 ft 212 kts 292°
2026-05-06 16:29 40.70971 30.25252 3039 ft 203 kts 290°
2026-05-06 16:30 40.71451 30.23534 3017 ft 197 kts 288°
2026-05-06 16:30 40.71733 30.22407 3010 ft 192 kts 287°
2026-05-06 16:30 40.72173 30.20448 3011 ft 151 kts 284°
2026-05-06 16:30 40.72434 30.19159 3006 ft 141 kts 283°
2026-05-06 16:31 40.72669 30.17905 2840 ft 146 kts 283°
2026-05-06 16:31 40.72820 30.16491 2347 ft 161 kts 274°
2026-05-06 16:31 40.73159 30.15163 2198 ft 149 kts 319°
2026-05-06 16:31 40.74099 30.15240 2134 ft 152 kts 40°
2026-05-06 16:32 40.74560 30.16507 1952 ft 156 kts 82°
2026-05-06 16:32 40.74330 30.17939 1551 ft 164 kts 125°
2026-05-06 16:32 40.73385 30.18662 1044 ft 169 kts 181°
2026-05-06 16:32 40.72446 30.17880 736 ft 161 kts 248°
2026-05-06 16:33 40.72414 30.16588 926 ft 139 kts 285°
2026-05-06 16:33 40.72719 30.15357 879 ft 141 kts 291°
2026-05-06 16:33 40.72942 30.14073 771 ft 146 kts 281°
2026-05-06 16:34 40.73232 30.11355 452 ft 152 kts 279°
2026-05-06 16:34 40.73369 30.09982 243 ft 146 kts 278°
2026-05-06 16:34 40.73470 30.08915 183 ft 74 kts 274°
2026-05-06 16:34 40.73495 30.08509 185 ft 26 kts 272°
2026-05-06 16:35 40.73505 30.08347 185 ft 9 kts 258°
2026-05-06 16:35 40.73493 30.08407 185 ft 15 kts 79°
2026-05-06 16:35 40.73488 30.08574 185 ft 22 kts 97°
2026-05-06 16:35 40.73464 30.08798 183 ft 27 kts 97°
2026-05-06 16:36 40.73440 30.09062 182 ft 31 kts 98°
2026-05-06 16:36 40.73414 30.09349 189 ft 32 kts 94°
2026-05-06 16:36 40.73397 30.09647 193 ft 33 kts 94°
2026-05-06 16:36 40.73390 30.09747 193 ft 7 kts 121°
2026-05-06 16:37 40.73327 30.09828 189 ft 18 kts 142°
2026-05-06 16:37 40.73249 30.09892 191 ft 1 kts 188°
2026-05-06 16:37 40.73236 30.09881 187 ft 0 kts 231°
2026-05-06 16:37 40.73235 30.09880 187 ft 0 kts 231°